Regional Weather Roundup
Issued by NWS

Home | Current Version | Previous Version | Graphics & Text | Print | Product List | Glossary On
Versions: 1 2 3 4 5 6 7 8 9 10 11 12 13 14 15 16 17 18 19 20 21 22 23 24 25 26 27 28 29 30 31 32 33 34 35 36 37 38 39 40 41 42 43 44 45 46 47 48 49 50
000
ASUS43 KFSD 232102
RWRSD

WEATHER ROUNDUP FOR SOUTH DAKOTA
NATIONAL WEATHER SERVICE SIOUX FALLS SD
400 PM CDT FRI JUN 23 2017

NOTE: "FAIR" INDICATES FEW OR NO CLOUDS BELOW 12,000 FEET WITH NO
SIGNIFICANT WEATHER AND/OR OBSTRUCTIONS TO VISIBILITY.


SDZ001>005-009-010-012>017-232200-
NORTHWEST AND NORTH CENTRAL SOUTH DAKOTA

CITY           SKY/WX    TMP DP  RH WIND       PRES   REMARKS
BUFFALO          N/A     67  29  24 NW25G40   30.10S
FAITH            N/A     68  32  26 NW25G32   30.11F
MOBRIDGE       MOSUNNY   70  33  25 N22G32    30.03S
$$

SDZ012>016-024>037-041>051-057-063-072>074-232200-
SOUTHWEST AND SOUTH CENTRAL SOUTH DAKOTA

CITY           SKY/WX    TMP DP  RH WIND       PRES   REMARKS
RAPID CTY ARPT SUNNY     69  33  26 N20G37    30.15S
PIERRE         MOSUNNY   70  35  27 NW24G33   30.07F
CUSTER         SUNNY     63  24  22 W15G29    30.21S
ELLSWORTH AFB  SUNNY     68  33  26 NW28      30.15S
PHILIP         MOSUNNY   72  34  24 NW23G35   30.11S
PINE RIDGE     MOSUNNY   70  41  34 N13G18    30.15F
SPEARFISH      FAIR      63  34  34 NW20G30   30.22R
WINNER         FAIR      75  35  23 NW17G38   30.07F
$$

SDZ004>011-016>023-039-040-232200-
NORTHEAST SOUTH DAKOTA

CITY           SKY/WX    TMP DP  RH WIND       PRES   REMARKS
ABERDEEN       MOSUNNY   69  40  34 NW22G31   30.00R
WATERTOWN      CLOUDY    61  47  59 NW17      29.98S
BROOKINGS      CLOUDY    62  48  60 NW17G24   29.99R
SISSETON         N/A     67  46  47 NW21G28   29.94R
$$

SDZ017-020-022-023-036>040-048>070-232200-
SOUTHEAST SOUTH DAKOTA

CITY           SKY/WX    TMP DP  RH WIND       PRES   REMARKS
SIOUX FALLS    CLOUDY    66  51  58 NW21G26   29.99S
HURON          SUNNY     69  39  33 NW25G35   30.01S
CHAMBERLAIN    SUNNY     71  37  29 W21G32    30.06S
MITCHELL       MOSUNNY   73  42  32 NW21G28   30.02S
$$

ABBREVIATIONS USED IN REMARKS
   TC - TEMPERATURE IN CELSIUS
  WCI - WIND CHILL INDEX
   HX - HEAT INDEX
  VSB - VISIBILITY




USA.gov is the U.S. government's official web portal to all federal, state and local government web resources and services.